Weather History for Kirksville, MO

Change the Weather History Date:

Thursday, November 29, 2012

  Actual Average Record
Temperature  
Mean Temperature 42 °F 34 °F  
Max Temperature 56 °F 43 °F 74 °F (1933)
Min Temperature 27 °F 25 °F -2 °F (1976)
Degree Days  
Heating Degree Days 23 31  
Month to date heating degree days 673 704  
Since 1 July heating degree days 1252 1193  
Cooling Degree Days 0 0  
Month to date cooling degree days 2 0  
Year to date cooling degree days 1321 939  
Moisture  
Dew Point 32 °F    
Average Humidity 66    
Maximum Humidity 85    
Minimum Humidity 47    
Precipitation  
Precipitation 0.00 in 0.09 in 1.44 in (2006)
Month to date precipitation 1.73 2.64  
Year to date precipitation 26.42 37.48  
Sea Level Pressure  
Sea Level Pressure 30.11 in    
Wind  
Wind Speed 7 mph (South)    
Max Wind Speed 16 mph    
Max Gust Speed 22 mph    
Visibility 10 miles    
Events      
T = Trace of Precipitation, MM = Missing Value Source: NWS Daily Summary

Daily Weather History Graph

Daily Weather History Graph

Search for Another Location

Airport:

Trip Planner

Search our weather history database for the weather conditions in past years. The results will help you decide how hot, cold, wet, or windy it might be!

Date:

Astronomy

Nov. 29, 2012 Rise Set
Actual Time 7:11 AM CST 4:45 PM CST
Civil Twilight 6:41 AM CST 5:15 PM CST
Nautical Twilight 6:08 AM CST 5:49 PM CST
Astronomical Twilight 5:35 AM CST 6:21 PM CST
Moon 5:48 PM CST (11/29) 7:58 AM CST (11/29)
Length of Visible Light 10h 34m
Length of Day
9h 34m
Full, 99% of the Moon is Illuminated
Nov 29
Full
Dec 6
Last Quarter
Dec 13
New
Dec 19
First Quarter
Dec 28
Full

Hourly Weather History & Observations

Time (CST) Temp. Windchill Dew Point Humidity Pressure Visibility Wind Dir Wind Speed Gust Speed Precip Events Conditions
12:55 AM 30.9 °F 24.3 °F 25.0 °F 79% 30.24 in 10.0 mi South 6.9 mph - N/A   Clear
1:55 AM 30.9 °F 26.2 °F 25.0 °F 79% 30.23 in 10.0 mi SSE 4.6 mph - N/A   Clear
2:55 AM 30.0 °F 24.1 °F 25.0 °F 82% 30.23 in 10.0 mi SE 5.8 mph - N/A   Clear
3:55 AM 30.0 °F 24.1 °F 25.0 °F 82% 30.21 in 10.0 mi South 5.8 mph - N/A   Clear
4:55 AM 28.9 °F 21.1 °F 25.0 °F 85% 30.20 in 10.0 mi South 8.1 mph - N/A   Clear
5:55 AM 28.0 °F 20.0 °F 25.0 °F 88% 30.19 in 10.0 mi South 8.1 mph - N/A   Clear
6:55 AM 28.9 °F 22.8 °F 25.0 °F 85% 30.19 in 10.0 mi SE 5.8 mph - N/A   Clear
7:55 AM 30.0 °F 23.2 °F 26.1 °F 85% 30.18 in 9.0 mi SSE 6.9 mph - N/A   Clear
8:55 AM 37.0 °F 31.6 °F 30.9 °F 79% 30.17 in 10.0 mi SSE 6.9 mph - N/A   Clear
9:55 AM 46.0 °F 41.4 °F 33.1 °F 61% 30.15 in 10.0 mi SSW 9.2 mph 16.1 mph N/A   Clear
10:55 AM 50.0 °F - 33.1 °F 52% 30.13 in 10.0 mi SSW 12.7 mph 21.9 mph N/A   Clear
11:55 AM 50.0 °F - 33.1 °F 52% 30.10 in 10.0 mi South 12.7 mph - N/A   Clear
12:55 PM 53.1 °F - 35.1 °F 50% 30.08 in 10.0 mi SSW 11.5 mph 19.6 mph N/A   Clear
1:55 PM 55.0 °F - 36.0 °F 49% 30.05 in 10.0 mi SW 9.2 mph 18.4 mph N/A   Clear
2:55 PM 55.9 °F - 37.0 °F 49% 30.03 in 10.0 mi SSW 10.4 mph 17.3 mph N/A   Clear
3:55 PM 54.0 °F - 37.0 °F 53% 30.03 in 10.0 mi SSW 9.2 mph - N/A   Clear
4:55 PM 50.0 °F - 37.0 °F 61% 30.03 in 10.0 mi South 3.5 mph - N/A   Clear
5:55 PM 45.0 °F - 36.0 °F 71% 30.04 in 10.0 mi Calm Calm - N/A   Clear
6:55 PM 39.0 °F 36.8 °F 34.0 °F 82% 30.05 in 10.0 mi ESE 3.5 mph - N/A   Clear
7:55 PM 41.0 °F - 35.1 °F 79% 30.05 in 10.0 mi Calm Calm - N/A   Clear
8:55 PM 37.9 °F 34.4 °F 34.0 °F 86% 30.04 in 10.0 mi SSE 4.6 mph - N/A   Clear
9:55 PM 39.0 °F 34.8 °F 35.1 °F 86% 30.04 in 10.0 mi SSW 5.8 mph - N/A   Clear
10:55 PM 43.0 °F 38.8 °F 36.0 °F 76% 30.04 in 10.0 mi SSW 6.9 mph - N/A   Clear
11:55 PM 43.0 °F 38.2 °F 34.0 °F 71% 30.03 in 10.0 mi SSW 8.1 mph - N/A   Clear